Printer-friendly version

IAU Minor Planet Center

Minor Planet Center

MPEC 2003-J30 : COMET C/2003 H1 (LINEAR)

The following Minor Planet Electronic Circular may be linked-to from your own Web pages, but must not otherwise be redistributed electronically.


Read MPEC 2003-J29 Read MPEC 2003-J31


M.P.E.C. 2003-J30                                Issued 2003 May 6, 16:30 UT

     The Minor Planet Electronic Circulars contain information on unusual
         minor planets and routine data on comets.  They are published
   on behalf of Commission 20 of the International Astronomical Union by the
          Minor Planet Center, Smithsonian Astrophysical Observatory,
                          Cambridge, MA 02138, U.S.A.

             Prepared using the Tamkin Foundation Computer Network

                              MPC@CFA.HARVARD.EDU
          URL http://cfa-www.harvard.edu/iau/mpc.html  ISSN 1523-6714

                           COMET C/2003 H1 (LINEAR)

Observations:
    CK03H010  C2003 04 26.04498 18 13 58.75 +20 10 19.4          15.8 T      049
    CK03H010  C2003 04 26.04751 18 13 58.55 +20 10 21.6          15.8 T      049
    CK03H010  C2003 04 26.04931 18 13 58.43 +20 10 22.4          15.9 T      049
    CK03H010  C2003 04 26.05122 18 13 58.30 +20 10 23.4          15.9 T      049
    CK03H010  C2003 04 26.05304 18 13 58.18 +20 10 24.4          15.9 T      049
    CK03H010  C2003 04 26.05487 18 13 58.06 +20 10 25.3          15.9 T      049
    CK03H010  C2003 04 29.03544 18 10 28.45 +20 36 59.0          15.6 T      049
    CK03H010  C2003 04 29.03760 18 10 28.29 +20 37 00.3          15.6 T      049
    CK03H010  C2003 04 29.03947 18 10 28.16 +20 37 01.2          15.5 T      049
    CK03H010  C2003 04 29.04122 18 10 28.02 +20 37 02.3          15.6 T      049
    CK03H010  C2003 04 29.04297 18 10 27.90 +20 37 03.3          15.5 T      049
    CK03H010  C2003 04 30.76038 18 08 18.90 +20 52 12.0          15.9 T      360
    CK03H010  C2003 04 30.76331 18 08 18.67 +20 52 13.2                      360
    CK03H010  C2003 05 01.06850 18 07 55.12 +20 54 52.3          15.9 N      939
    CK03H010  C2003 05 01.07606 18 07 54.55 +20 54 55.6          15.8 N      939
    CK03H010  C2003 05 01.08369 18 07 54.02 +20 54 58.7          15.8 N      939
    CK03H010  C2003 05 01.35844 18 07 32.67 +20 57 24.7          15.6 T      H41
    CK03H010  C2003 05 01.36200 18 07 32.28 +20 57 26.1          15.7 T      H41
    CK03H010  C2003 05 01.65446 18 07 09.56 +20 59 56.8                      379
    CK03H010  C2003 05 01.65646 18 07 09.40 +20 59 59.3          16.4 N      379
    CK03H010  C2003 05 01.66841 18 07 08.37 +21 00 06.4                      349
    CK03H010  C2003 05 01.67414 18 07 07.90 +21 00 09.4                      349
    CK03H010  C2003 05 01.67689 18 07 07.68 +21 00 10.5                      349
    CK03H010  C2003 05 01.67969 18 07 07.48 +21 00 12.4                      349
    CK03H010  C2003 05 01.68292 18 07 07.23 +21 00 14.2          15.9 T      349
    CK03H010  C2003 05 02.24632 18 06 22.45 +21 05 03.9          15.4 T      785
    CK03H010  C2003 05 02.27061 18 06 20.63 +21 05 19.9          15.4 T      785
    CK03H010  C2003 05 02.33830 18 06 15.24 +21 05 56.1          16.1 T      H41
    CK03H010  C2003 05 02.65162 18 05 50.10 +21 08 37.2                      340
    CK03H010  C2003 05 02.65462 18 05 49.82 +21 08 37.5                      340
    CK03H010  C2003 05 02.65712 18 05 49.59 +21 08 39.5          15.5 T      340
    CK03H010  C2003 05 02.77453 18 05 39.96 +21 09 41.2          16.4 N      379
    CK03H010  C2003 05 02.77616 18 05 39.80 +21 09 41.2          16.7 N      379
    CK03H010  C2003 05 02.77778 18 05 39.77 +21 09 42.3          16.3 N      379
    CK03H010  C2003 05 03.03088 18 05 19.21 +21 11 53.3          15.8 N      213
    CK03H010  C2003 05 03.03455 18 05 18.93 +21 11 55.2          15.7 N      213
    CK03H010  C2003 05 03.04253 18 05 18.28 +21 11 59.2          15.8 N      213
    CK03H010  C2003 05 03.06019 18 05 16.92 +21 12 08.4          15.8 T      939
    CK03H010  C2003 05 03.06775 18 05 16.32 +21 12 11.7          15.8 T      939
    CK03H010  C2003 05 03.07534 18 05 15.68 +21 12 15.2          15.8 T      939
    CK03H010  C2003 05 03.10741 18 05 12.97 +21 12 32.3          15.7 T      232
    CK03H010  C2003 05 03.11001 18 05 12.76 +21 12 33.7          15.7 T      232
    CK03H010  C2003 05 03.11780 18 05 12.14 +21 12 38.1          15.7 T      232
    CK03H010  C2003 05 03.73859 18 04 20.98 +21 17 57.3                      349
    CK03H010  C2003 05 03.74133 18 04 20.78 +21 17 58.8                      349
    CK03H010  C2003 05 03.74416 18 04 20.52 +21 18 00.1                      349
    CK03H010  C2003 05 03.74677 18 04 20.30 +21 18 01.7          15.8 T      349
    CK03H010  C2003 05 03.99792 18 03 59.54 +21 20 08.8          15.8 T      159
    CK03H010  C2003 05 04.00184 18 03 59.22 +21 20 10.7          15.8 T      159
    CK03H010  C2003 05 04.00370 18 03 59.05 +21 20 11.8          15.8 T      159
    CK03H010  C2003 05 04.04484 18 03 55.44 +21 20 34.9                      A46
    CK03H010  C2003 05 04.04596 18 03 55.33 +21 20 36.0                      A46
    CK03H010  C2003 05 04.04823 18 03 55.17 +21 20 36.9                      A46
    CK03H010  C2003 05 04.04936 18 03 55.05 +21 20 37.9                      A46
    CK03H010  C2003 05 04.05049 18 03 55.00 +21 20 38.6                      A46
    CK03H010  C2003 05 04.05161 18 03 54.89 +21 20 38.9                      A46
    CK03H010  C2003 05 04.05274 18 03 54.76 +21 20 39.4                      A46
    CK03H010  C2003 05 04.05388 18 03 54.65 +21 20 40.6                      A46
    CK03H010  C2003 05 04.05500 18 03 54.63 +21 20 41.0                      A46
    CK03H010  C2003 05 04.05726 18 03 54.44 +21 20 41.8                      A46
    CK03H010  C2003 05 04.05838 18 03 54.31 +21 20 42.4                      A46
    CK03H010  C2003 05 04.05951 18 03 54.27 +21 20 43.1                      A46
    CK03H010  C2003 05 04.06065 18 03 54.12 +21 20 43.5                      A46
    CK03H010  C2003 05 04.06177 18 03 54.05 +21 20 43.9                      A46
    CK03H010  C2003 05 04.06289 18 03 53.99 +21 20 45.0                      A46
    CK03H010  C2003 05 04.36319 18 03 28.83 +21 23 16.8          15.5 T      850
    CK03H010  C2003 05 04.37153 18 03 28.18 +21 23 20.0          15.3 T      850
    CK03H010  C2003 05 04.38611 18 03 26.93 +21 23 27.8          15.3 T      850
    CK03H010  C2003 05 04.39653 18 03 25.95 +21 23 32.9          15.5 T      850
    CK03H010  C2003 05 05.05529 18 02 30.05 +21 29 05.8          16.1 N      166
    CK03H010  C2003 05 05.05750 18 02 29.88 +21 29 06.4          15.7 N      166
    CK03H010  C2003 05 05.05942 18 02 29.72 +21 29 07.7          16.0 N      166
    CK03H010  C2003 05 05.06280 18 02 29.41 +21 29 10.0          16.2 N      166
    CK03H010  C2003 05 05.06495 18 02 29.22 +21 29 10.5          15.8 N      166
    CK03H010  C2003 05 05.31609 18 02 07.63 +21 31 18.0          15.7 T      785
    CK03H010  C2003 05 05.34758 18 02 04.90 +21 31 33.7          15.7 T      785
    CK03H010  C2003 05 06.01513 18 01 06.92 +21 37 07.8          16.5 N      118
    CK03H010  C2003 05 06.02161 18 01 06.35 +21 37 11.2                      118
    CK03H010  C2003 05 06.02896 18 01 05.73 +21 37 14.9                      118
    CK03H010  C2003 05 06.04823 18 01 04.01 +21 37 24.2          16.6 N      J95
    CK03H010  C2003 05 06.05177 18 01 03.69 +21 37 25.6          16.5 N      J95
    CK03H010  C2003 05 06.05530 18 01 03.40 +21 37 27.3          16.4 N      J95
    CK03H010  C2003 05 06.34159 18 00 38.29 +21 39 50.8          15.8 T      H41
    CK03H010  C2003 05 06.35410 18 00 37.12 +21 39 57.2          15.8 T      H41

Observer details:
049 Uppsala-Kvistaberg.  Observers O. Karlsson, C. -I. Lagerkvist, T. Oja.
    Measurers G. Hahn, O. Karlsson, C. -I. Lagerkvist, S. Mottola, J. Warell.
    1.0-m Schmidt + CCD.
118 Modra.  Observers A. Galad, S. Gajdos.  0.6-m f/5.5 reflector + CCD.
159 Monte Agliale.  Observers M. M. M. Santangelo, G. Petroni.  0.51-m f/4.5
    Newtonian + CCD.
166 Upice.  Observer L. Vyskocil.  0.3-m f/3.3 Schmidt-Cassegrain + CCD.
213 Observatorio Montcabre.  Observer R. Naves.  Measurer M. Campas.  0.30-m
    f/5.5 Schmidt-Cassegrain + CCD.
232 Masquefa Observatory.  Observer E. Reina.  0.25-m f/6.3 Schmidt-Cassegrain
    + CCD.
340 Toyonaka.  Observer Y. Ezaki.  0.30-m f/6 reflector + CCD.
349 Ageo.  Observer K. Kadota.  0.25-m f/5.0 reflector + CCD.
360 Kuma Kogen.  Observer A. Nakamura.  0.60-m f/5.8 Ritchey-Chretien + CCD.
379 Hamamatsu-Yuto.  Observer S. Wakuda.  0.25-m f/5.0 Schmidt-Cassegrain
    + CCD.
785 Fitz-Randolph Observatory, Princeton.  Observer J. Maffei.  0.91-m f/13.6
    Cassegrain + CCD.
850 Cordell-Lorenz Observatory, Sewanee.  Observer D. T. Durig.  0.3-m f/5.75
    Schmidt-Cassegrain + CCD.
939 Observatorio Rodeno.  Observer J. Castellano.  0.20-m f/10
    Schmidt-Cassegrain + CCD.
A46 Lelekovice.  Observer K. Hornoch.  0.35-m f/4.7 reflector + CCD.
H41 Petit Jean Mountain.  Observer P. C. Sherrod.  0.41-m f/3.7
    Schmidt-Cassegrain + CCD.
J95 Great Shefford.  Observer P. Birtwhistle.  0.30-m f/6.3 Schmidt-Cassegrain
    + CCD.

Orbital elements:
    C/2003 H1 (LINEAR)
T 2004 Feb. 22.377 TT                                   MPC
q   2.23623              (2000.0)            P               Q
                   Peri.  196.235       -0.976057       +0.029048
                   Node    19.046       -0.031970       +0.961122
e   1.0            Incl.  138.655       -0.215154       -0.274591
From 178 observations 2003 Apr. 24-May 6.

Ephemeris:
    C/2003 H1 (LINEAR)
Date    TT    R. A. (2000) Decl.     Delta      r     Elong.  Phase   m1    m2
2003 05 01    18 08.01   +20 54.3    3.366    3.912   115.9    13.4  15.1
2003 05 11    17 53.40   +22 17.1    3.181    3.831   123.4    12.7  14.8
2003 05 21    17 35.41   +23 24.9    3.026    3.751   129.4    12.0  14.6
2003 05 31    17 14.40   +24 07.9    2.907    3.672   132.8    11.7  14.5
2003 06 10    16 51.31   +24 17.3    2.828    3.593   132.5    12.0  14.3
2003 06 20    16 27.51   +23 48.0    2.790    3.514   128.5    13.1  14.2
2003 06 30    16 04.54   +22 40.8    2.794    3.436   121.5    14.6  14.1
2003 07 10    15 43.73   +21 01.6    2.833    3.359   112.7    16.2  14.0
2003 07 20    15 25.89   +18 59.8    2.902    3.283   102.9    17.6  14.0
2003 07 30    15 11.34   +16 44.9    2.992    3.207    92.9    18.4  13.9

Brian G. Marsden             (C) Copyright 2003 MPC           M.P.E.C. 2003-J30

Read MPEC 2003-J29 Read MPEC 2003-J31


Our Web policy. Index to the CBAT/MPC/ICQ pages.


Valid HTML 4.01!